{"data":{"norad_id":65327,"intl_designator":"2025-189E","name":"STARLINK-34880","alt_names":[],"object_type":"PAYLOAD","status":"ACTIVE","operator":null,"country":"US","launch_date":"2025-08-27","launch_site_code":"AFETR","launch_vehicle":null,"mission":null,"orbit_class":"UNKNOWN","rcs_meters":null,"size_class":null,"mass_kg":null,"dimensions":null,"purposes":["comms"],"wikipedia_slug":null,"has_3d_model":false,"image_url":null,"decayed_at":null,"tle_current":{"epoch":"2026-05-25T03:57:16.337088Z","epoch_age_seconds":57200,"freshness":"FRESH","line1":"1 65327U 25189E   26145.16477242  .00011314  00000+0  39347-3 0  9997","line2":"2 65327  53.1593 211.6584 0001074  80.9977 279.1145 15.30204753 42814","mean_motion":15.30204753,"eccentricity":0.0001074,"inclination_deg":53.1593,"raan_deg":211.6584,"arg_perigee_deg":80.9977,"mean_anomaly_deg":279.1145,"bstar":0.00039347,"rev_number":4281,"period_min":94.105053403922,"perigee_km":474.46482936671,"apogee_km":475.93692634287,"semimajor_km":6853.3378778548,"source":"CELESTRAK","updated_at":"2026-05-25T13:38:20.758743Z"}}}